This is the latest recevied weather packets stored in our database for station/object IA5FYI-13. If no packets are shown the sender has not sent any weather packets the latest 10 day(s).
| Time | Temp. | Humidity | Pressure | Rain* | Wind** | Luminosity | Snow |
|---|---|---|---|---|---|---|---|
| 1777788912 | 17.78° C | 77% | 1018.6 hPa | 0 mm | - | - | - |
| 1777788612 | 17.78° C | 77% | 1018.6 hPa | 0 mm | - | - | - |
| 1777788309 | 17.78° C | 78% | 1018.6 hPa | 0 mm | - | - | - |
| 1777788031 | 17.22° C | 77% | 1018.6 hPa | 0 mm | - | - | - |
| 1777787708 | 17.22° C | 75% | 1019 hPa | 0 mm | - | - | - |
| 1777787412 | 17.22° C | 73% | 1018.6 hPa | 0 mm | - | - | - |
| 1777787111 | 17.78° C | 70% | 1019 hPa | 0 mm | - | - | - |
| 1777786812 | 17.78° C | 67% | 1019 hPa | 0 mm | - | - | - |
| 1777786509 | 17.78° C | 69% | 1018.6 hPa | 0 mm | - | - | - |
| 1777786223 | 17.22° C | 71% | 1019 hPa | 0 mm | - | - | - |
| 1777785908 | 16.11° C | 72% | 1018.6 hPa | 0 mm | - | - | - |
| 1777785612 | 15° C | 74% | 1019 hPa | 0 mm | - | - | - |
| 1777785312 | 13.89° C | 75% | 1018.6 hPa | 0 mm | - | - | - |
| 1777785012 | 13.89° C | 75% | 1018.6 hPa | 0 mm | - | - | - |
| 1777784709 | 13.89° C | 76% | 1018.6 hPa | 0 mm | - | - | - |
| 1777784431 | 12.78° C | 76% | 1019 hPa | 0 mm | - | - | - |
| 1777784111 | 12.78° C | 77% | 1019 hPa | 0 mm | - | - | - |
| 1777783812 | 12.78° C | 78% | 1019 hPa | 0 mm | - | - | - |
| 1777783511 | 12.22° C | 78% | 1018.6 hPa | 0 mm | - | - | - |
| 1777783212 | 12.22° C | 78% | 1019 hPa | 0 mm | - | - | - |
| 1777782908 | 11.11° C | 78% | 1019 hPa | 0 mm | - | - | - |
| 1777782620 | 11.11° C | 78% | 1019 hPa | 0 mm | - | - | - |
| 1777782308 | 11.11° C | 78% | 1018.6 hPa | 0 mm | - | - | - |
| 1777782012 | 11.11° C | 78% | 1018.6 hPa | 0 mm | - | - | - |
| 1777781712 | 11.11° C | 78% | 1019 hPa | 0 mm | - | - | - |
* Rain latest hour (hover to see other rain measurements)
** Current wind speed in m/s (hover to see current wind gust speed)